Change the Weather History Date:

Wednesday, October 17, 2012

  Actual Average Record
Temperature  
Mean Temperature 64 °F -  
Max Temperature 78 °F 70 °F 80 °F (2007)
Min Temperature 51 °F 47 °F 39 °F (1996)
Growing Degree Days 14 (Base 50)    
Moisture  
Dew Point 46 °F    
Average Humidity 55    
Maximum Humidity 82    
Minimum Humidity 24    
Precipitation  
Precipitation 0.00 in - - ()
Sea Level Pressure  
Sea Level Pressure 30.15 in    
Wind  
Wind Speed 5 mph ()    
Max Wind Speed 15 mph    
Max Gust Speed 24 mph    
Visibility 7.2 miles    
Events      
Averages and records for this station are not official NWS values.
T = Trace of Precipitation, MM = Missing Value Source: Averaged Metar Reports

Daily Weather History Graph

Daily Weather History Graph

Search for Another Location

Airport or City:

Trip Planner

Search our weather history database for the weather conditions in past years. The results will help you decide how hot, cold, wet, or windy it might be!

Date:

Astronomy

Oct. 17, 2012 Rise Set
Actual Time 7:31 AM CDT 7:11 PM CDT
Civil Twilight 7:09 AM CDT 7:33 PM CDT
Nautical Twilight 6:43 AM CDT 7:59 PM CDT
Astronomical Twilight 6:18 AM CDT 8:24 PM CDT
Moon 9:44 AM CDT (10/17) 9:13 PM CDT (10/17)
Length of Visible Light 12h 24m
Length of Day
11h 39m
Waxing Crescent, 7% of the Moon is Illuminated
Oct 17
Waxing Crescent
Oct 21
First Quarter
Oct 29
Full
Nov 6
Last Quarter
Nov 13
New

Hourly Weather History & Observations

Time (CDT) Temp. Dew Point Humidity Pressure Visibility Wind Dir Wind Speed Gust Speed Precip Events Conditions
12:50 AM 60.8 °F 48.2 °F 63% 29.75 in 10.0 mi SE 5.8 mph - N/A   Clear
1:49 AM 60.8 °F 46.4 °F 59% 30.27 in 10.0 mi SSE 4.6 mph - N/A   Clear
2:54 AM 59.0 °F 48.2 °F 67% 30.26 in 10.0 mi Calm Calm - N/A   Clear
3:48 AM 57.2 °F 46.4 °F 67% 29.71 in 7.0 mi Calm Calm - N/A   Clear
4:46 AM 55.4 °F 48.2 °F 77% 30.25 in 7.0 mi NE 4.6 mph - N/A   Clear
5:48 AM 53.6 °F 44.6 °F 72% 30.26 in 6.0 mi NE 6.9 mph - N/A   Clear
6:51 AM 53.6 °F 44.6 °F 72% 29.80 in 6.0 mi Calm Calm - N/A   Clear
7:21 AM 51.8 °F 46.4 °F 82% 30.28 in 5.0 mi NE 3.5 mph - N/A   Clear
7:45 AM 51.8 °F 46.4 °F 82% 30.28 in 5.0 mi NE 9.2 mph - N/A   Scattered Clouds
8:20 AM 51.8 °F 46.4 °F 82% 30.29 in 5.0 mi NE 4.6 mph - N/A   Mostly Cloudy
8:38 AM 55.4 °F 48.2 °F 77% 30.30 in 5.0 mi ENE 4.6 mph - N/A   Mostly Cloudy
8:42 AM 55.4 °F 48.2 °F 77% 30.30 in 5.0 mi ENE 4.6 mph - N/A   Mostly Cloudy
9:09 AM 59.0 °F 48.2 °F 67% 30.30 in 5.0 mi ENE 3.5 mph - N/A   Scattered Clouds
9:24 AM 60.8 °F 50.0 °F 68% 30.30 in 5.0 mi NNE 5.8 mph - N/A   Scattered Clouds
9:44 AM 62.6 °F 48.2 °F 59% 30.31 in 5.0 mi ENE 3.5 mph - N/A   Scattered Clouds
9:46 AM 62.6 °F 50.0 °F 63% 29.82 in 5.0 mi ENE 3.5 mph - N/A   Scattered Clouds
10:15 AM 66.2 °F 48.2 °F 52% 30.32 in 5.0 mi Calm Calm - N/A   Scattered Clouds
10:23 AM 66.2 °F 48.2 °F 52% 30.32 in 5.0 mi Calm Calm - N/A   Scattered Clouds
10:45 AM 68.0 °F 48.2 °F 49% 30.32 in 5.0 mi North 3.5 mph - N/A   Scattered Clouds
11:46 AM 69.8 °F 50.0 °F 49% 30.31 in 5.0 mi Calm Calm - N/A   Mostly Cloudy
12:45 PM 73.4 °F 46.4 °F 38% 30.28 in 5.0 mi North 11.5 mph - N/A   Mostly Cloudy
12:47 PM 73.4 °F 46.4 °F 38% 29.76 in 5.0 mi North 11.5 mph - N/A   Mostly Cloudy
1:45 PM 75.2 °F 41.0 °F 29% 30.25 in 5.0 mi North 13.8 mph - N/A   Mostly Cloudy
2:44 PM 77.0 °F 42.8 °F 29% 30.21 in 8.0 mi North 15.0 mph - N/A   Mostly Cloudy
3:43 PM 77.0 °F 41.0 °F 28% 29.67 in 8.0 mi NNE 8.1 mph - N/A   Mostly Cloudy
4:49 PM 78.8 °F 41.0 °F 26% 30.18 in 8.0 mi WNW 4.6 mph - N/A   Mostly Cloudy
5:44 PM 77.0 °F 41.0 °F 28% 30.17 in 10.0 mi NW 6.9 mph - N/A   Mostly Cloudy
6:46 PM 75.2 °F 35.6 °F 24% 29.67 in 10.0 mi NNW 11.5 mph - N/A   Mostly Cloudy
7:43 PM 73.4 °F 39.2 °F 29% 30.22 in 10.0 mi North 9.2 mph - N/A   Scattered Clouds
8:43 PM 71.6 °F 46.4 °F 41% 30.26 in 10.0 mi NE 12.7 mph 24.2 mph N/A   Partly Cloudy
9:51 PM 69.8 °F 48.2 °F 46% 29.73 in 10.0 mi NNE 11.5 mph - N/A   Partly Cloudy
10:46 PM 68.0 °F 48.2 °F 49% 30.29 in 12.0 mi NNE 8.1 mph - N/A   Partly Cloudy
11:28 PM 64.4 °F 48.2 °F 56% 30.30 in 12.0 mi East 6.9 mph - N/A   Clear
11:40 PM 62.6 °F 48.2 °F 59% 30.30 in 12.0 mi East 5.8 mph - N/A   Clear